Regional Weather Roundup
Issued by NWS Midland/Odessa, TX

Skip options and go directly to product.
Home | Oldest Version | Next Version | Current Version | All | Text Only | Save Text | Print | Product List | Glossary On

Skip product version selection by date and time.   
900
ASUS44 KMAF 082301
RWRMAF
MIDLAND AREA WEATHER ROUNDUP
NATIONAL WEATHER SERVICE MIDLAND TX
500 PM CST THU DEC 08 2016

...IN SOUTHWEST TEXAS AND SOUTHEAST NEW MEXICO...

CITY           SKY/WX    TMP DP  RH WIND       PRES   REMARKS
ALPINE         CLOUDY    26  25  96 NE6       30.50S VSB 3/4 WCI  19
ANDREWS        CLOUDY    29  21  73 E3        30.54S
ARTESIA        CLOUDY    32  21  64 SE9       30.50S WCI  24
BIG SPRING     CLOUDY    30  23  75 NE9       30.59S WCI  22
CARLSBAD       CLOUDY    30  24  78 SE7       30.51S WCI  23
DRYDEN           N/A     36  26  67 N10       30.53R WCI  28
FORT STOCKTON  CLOUDY    30  25  81 NE9       30.54R WCI  22
GUAD PASS      NOT AVBL
HOBBS          CLOUDY    28  19  69 VRB5      30.52R WCI  23
MARFA          CLOUDY    27  24  89 NE16      30.42R WCI  15
MIDLAND AIRPK  CLOUDY    30  23  74 NE7       30.57S WCI  24
MIDLAND INTL   CLOUDY    29  20  69 NE10      30.55S WCI  20
ODESSA         CLOUDY    29  21  72 E12       30.55S WCI  19
PECOS          CLOUDY    32  26  77 E5        30.56S WCI  27
PRESIDIO       CLOUDY    42  28  59 NE14G21   30.42R WCI  34
SEMINOLE       CLOUDY    30  20  67 CALM      30.54S
SNYDER         CLOUDY    29  17  60 NE7       30.59S WCI  22
WINK           CLOUDY    31  23  72 E6        30.54S WCI  25
$$
...OTHER STATIONS IN TEXAS...

CITY           SKY/WX    TMP DP  RH WIND       PRES   REMARKS
ABILENE        CLOUDY    30  18  60 N13       30.61R WCI  20
AMARILLO       CLOUDY    25   7  46 SE6       30.52R WCI  18
AUSTIN         CLOUDY    41  24  51 N17G28    30.53R WCI  32
BROWNSVILLE    CLOUDY    47  43  86 NW22G36   30.35R WCI  39
CORPUS CHRISTI DRIZZLE   43  40  89 N21       30.44R WCI  34
DALLAS FTW     MOCLDY    35  14  42 N15       30.60S WCI  25
DEL RIO        CLOUDY    42  28  57 N13       30.55R WCI  35
EL PASO        PTSUNNY   40  25  55 E13       30.36S WCI  32
HOUSTON INT    CLOUDY    45  32  60 N18       30.45R WCI  37
LUBBOCK        CLOUDY    29  13  51 NE6       30.53R WCI  23
SAN ANGELO     CLOUDY    34  24  67 N10       30.59R WCI  26
SAN ANTONIO    CLOUDY    41  25  53 N16G26    30.52R WCI  33
WACO           CLOUDY    35  22  58 N15       30.60R WCI  25
WICHITA FALLS  NOT AVBL
$$
...OTHER LOCATIONS IN NEW MEXICO...

CITY           SKY/WX    TMP DP  RH WIND       PRES   REMARKS
ALAMAGORDO     NOT AVBL
ALBUQUERQUE    CLEAR     37  15  40 CALM      30.33S
CANNON AFB     NOT AVBL
CLOVIS         CLOUDY    23   9  54 S6        30.47R WCI  16
HOLLOMAN AFB   CLOUDY    42  25  51 S9        30.40F WCI  36
ROSWELL        CLOUDY    31  19  61 S7        30.49R WCI  24
RUIDOSO        FOG       21  19  93 SE5       30.35S VSB 1/2 WCI  15
SANTA FE       CLEAR     32  14  47 CALM      30.29F
TRUTH OR CONSE SUNNY     44  24  45 S6        30.31S
TUCUMCARI      CLOUDY    24  12  60 SE3       30.46S
$$

  • National Weather Service
  • Southern Region Headquarters
  • 819 Taylor Street, Room 10A06
  • Fort Worth, TX 76102
  • Page Author: NWS Fort Worth
  • Web Master: SR-SRH.Webmaster@noaa.gov
  •  
  • Page last modified: 30-Sep-2016 6:36 PM UTC
USA.gov is the U.S. government's official web portal to all federal, state and local government web resources and services.